Regional Weather Roundup
Issued by NWS Cleveland, OH

Home | Current Version | Previous Version | Graphics & Text | Print | Product List | Glossary On
Versions: 1 2 3 4 5 6 7 8 9 10 11 12 13 14 15 16 17 18 19 20 21 22 23 24 25 26 27 28 29 30 31 32 33 34 35 36 37 38 39 40 41 42 43 44 45 46 47 48 49 50
000
ASUS41 KCLE 230712
RWRCLE
OHIO REGIONAL WEATHER ROUNDUP
NATIONAL WEATHER SERVICE WILMINGTON, OH
300 AM EDT THU MAR 23 2017

NOTE: "FAIR" INDICATES FEW OR NO CLOUDS BELOW 12,000 FEET WITH NO
SIGNIFICANT WEATHER AND/OR OBSTRUCTIONS TO VISIBILITY.

OHZ001>008-015>018-024>027-034-035-043-044-230800-
   NORTHWEST OHIO

CITY           SKY/WX    TMP DP  RH WIND       PRES   REMARKS
DEFIANCE       FAIR      21  15  78 E6        30.53S WCI  13
FINDLAY        FAIR      24  14  65 E6        30.51S WCI  17
TOLEDO EXPRESS FAIR      20  15  81 CALM      30.54S
TOLEDO EXEC    FAIR      23  16  74 CALM      30.56R
LIMA           FAIR      22  17  81 E8        30.50R WCI  12
$$

OHZ009>014-019>023-028>033-038-089-230800-
   NORTHEAST OHIO

CITY           SKY/WX    TMP DP  RH WIND       PRES   REMARKS
CLE-HOPKINS    FAIR      23  14  68 S5        30.56F WCI  17
CLE-LAKEFRONT  FAIR      25  15  66 SE5       30.54F WCI  19
CUY CO. ARPT   NOT AVBL
LORAIN-ELYRIA  FAIR      20  14  77 CALM      30.54S
ASHTABULA      FAIR      19  15  84 CALM      30.53S
AKRON-CANTON   FAIR      21  10  62 E3        30.51S
WOOSTER        FAIR      20  14  77 CALM      30.52R
MANSFIELD      FAIR      20  13  74 E7        30.49S WCI  11
YOUNGSTOWN     FAIR      19  12  74 CALM      30.51S
$$

OHZ042-051>053-060>062-070>072-077>081-230800-
  SOUTHWEST OHIO

CITY           SKY/WX    TMP DP  RH WIND       PRES   REMARKS
CINC-COVINGTON FAIR      31  19  61 E14       30.44F WCI  21
CINC-LUNKEN    FAIR      28  21  75 NE5       30.48F WCI  23
HAMILTON       FAIR      27  20  75 E5        30.49S WCI  22
DAYTON         FAIR      24  17  74 E9        30.48S WCI  14
WRIGHT-PAT AFB FAIR      25  17  71 E5        30.48F WCI  19
DAYTON GENERAL FAIR      27  19  72 E9        30.46F WCI  18
WILMINGTON     FAIR      26  20  77 E8        30.46F WCI  18
$$

OHZ036-037-039>041-045>050-054>059-063>069-073>076-082>088-230800-
  CENTRAL AND SOUTHEAST OHIO

CITY           SKY/WX    TMP DP  RH WIND       PRES   REMARKS
COLUMBUS       FAIR      25  14  63 E5        30.51S WCI  19
OSU AIRPORT    FAIR      22  14  71 E7        30.50S WCI  13
BOLTON FIELD   FAIR      25  16  68 E3        30.51S
RICKENBACK AFB FAIR      24  15  70 E7        30.50F WCI  16
NEWARK         FAIR      25  12  58 NE3       30.51S
MARION         FAIR      19  12  74 E5        30.51S WCI  12
LANCASTER      FAIR      27  16  63 E5        30.51S WCI  22
ZANESVILLE     FAIR      24  11  57 NE6       30.52R WCI  17
NEW PHILLY     FAIR      20  13  74 CALM      30.54S
$$




USA.gov is the U.S. government's official web portal to all federal, state and local government web resources and services.